MATS (54227 NORAD) Tracking and Keplerian Element Data

This shows tracking and keplerian element data for the satellite.

Feedback or suggestion? Click here.




ElementValue
Catalog54227
NameMATS
Epoch Orbit1052
Epoch Day14.27198187
Epoch Year2023
RAAN20.0414
Inclination97.6531
Eccentricity0.0015131
Argument of Perigee73.3558
Mean Anonmoly286.9322
Mean Motion14.92933798
Decay Rate3.726E-05
L11 54227U 22147A 23014.27198187 .00003726 00000+0 36358-3 0 9994
L22 54227 97.6531 20.0414 0015131 73.3558 286.9322 14.92933798 10521



Live tracking and technical data element details for MATS (NORAD 54227). MATS can be tracked NOW for your location showing map with azimuth and elevation plus other details from your city location.







IsCatalogInMostPopularTable: catalog: 54227, numindb: 10
Update: records affected: 1



GetName: 54227 MATS

Hit Count: updated at: Fri, 27 Jan 2023 21:24:08 GMT